Time,TemperatureF,DewpointF,PressureIn,WindDirection,WindDirectionDegrees,WindSpeedMPH,WindSpeedGustMPH,Humidity,HourlyPrecipIn,Conditions,Clouds,dailyrainin,SoftwareType,DateUTC
2013-10-03 00:01:00,59.4,56.0,29.83,South,187,0.0,3.0,89,0.00,,,0.00,weatherlink.com 1.10,2013-10-03 04:01:00,
2013-10-03 00:16:00,58.8,56.0,29.84,South,187,0.0,0.0,89,0.00,,,0.00,weatherlink.com 1.10,2013-10-03 04:16:00,
2013-10-03 00:31:00,58.2,55.0,29.84,South,187,0.0,0.0,90,0.00,,,0.00,weatherlink.com 1.10,2013-10-03 04:31:00,
2013-10-03 00:46:00,57.5,55.0,29.84,South,187,0.0,0.0,91,0.00,,,0.00,weatherlink.com 1.10,2013-10-03 04:46:00,
2013-10-03 01:01:00,57.0,55.0,29.84,South,187,0.0,1.0,92,0.00,,,0.00,weatherlink.com 1.10,2013-10-03 05:01:00,
2013-10-03 01:16:00,56.4,54.0,29.84,South,187,0.0,0.0,91,0.00,,,0.00,weatherlink.com 1.10,2013-10-03 05:16:00,
2013-10-03 01:31:00,56.0,54.0,29.85,South,187,0.0,1.0,93,0.00,,,0.00,weatherlink.com 1.10,2013-10-03 05:31:00,
2013-10-03 01:46:00,55.9,54.0,29.86,South,187,0.0,1.0,94,0.00,,,0.00,weatherlink.com 1.10,2013-10-03 05:46:00,
2013-10-03 02:02:00,55.5,54.0,29.86,South,187,0.0,0.0,93,0.00,,,0.00,weatherlink.com 1.10,2013-10-03 06:02:00,
2013-10-03 02:16:00,55.0,53.0,29.86,South,187,0.0,0.0,94,0.00,,,0.00,weatherlink.com 1.10,2013-10-03 06:16:00,
2013-10-03 02:31:00,54.7,53.0,29.86,South,187,0.0,0.0,93,0.00,,,0.00,weatherlink.com 1.10,2013-10-03 06:31:00,
2013-10-03 02:46:00,54.2,53.0,29.86,South,187,0.0,0.0,94,0.00,,,0.00,weatherlink.com 1.10,2013-10-03 06:46:00,
2013-10-03 03:01:00,53.8,52.0,29.86,South,187,0.0,0.0,93,0.00,,,0.00,weatherlink.com 1.10,2013-10-03 07:01:00,
2013-10-03 03:17:00,53.4,52.0,29.87,South,187,0.0,0.0,95,0.00,,,0.00,weatherlink.com 1.10,2013-10-03 07:17:00,
2013-10-03 03:32:00,53.2,52.0,29.88,South,187,0.0,1.0,95,0.00,,,0.00,weatherlink.com 1.10,2013-10-03 07:32:00,
2013-10-03 03:47:00,52.8,51.0,29.88,South,187,0.0,0.0,94,0.00,,,0.00,weatherlink.com 1.10,2013-10-03 07:47:00,
2013-10-03 04:02:00,52.4,51.0,29.88,South,187,0.0,0.0,94,0.00,,,0.00,weatherlink.com 1.10,2013-10-03 08:02:00,
2013-10-03 04:17:00,52.0,50.0,29.89,South,187,0.0,0.0,94,0.00,,,0.00,weatherlink.com 1.10,2013-10-03 08:17:00,
2013-10-03 04:32:00,51.5,50.0,29.89,South,187,0.0,0.0,94,0.00,,,0.00,weatherlink.com 1.10,2013-10-03 08:32:00,
2013-10-03 04:47:00,51.2,50.0,29.89,South,187,0.0,0.0,94,0.00,,,0.00,weatherlink.com 1.10,2013-10-03 08:47:00,
2013-10-03 05:02:00,51.0,50.0,29.90,South,187,0.0,0.0,95,0.00,,,0.00,weatherlink.com 1.10,2013-10-03 09:02:00,
2013-10-03 05:17:00,50.7,49.0,29.90,South,187,0.0,1.0,95,0.00,,,0.00,weatherlink.com 1.10,2013-10-03 09:17:00,
2013-10-03 05:33:00,50.3,49.0,29.90,South,187,0.0,0.0,94,0.00,,,0.00,weatherlink.com 1.10,2013-10-03 09:33:00,
2013-10-03 05:47:00,49.9,48.0,29.91,South,187,0.0,0.0,94,0.00,,,0.00,weatherlink.com 1.10,2013-10-03 09:47:00,
2013-10-03 06:02:00,49.6,48.0,29.91,South,187,0.0,0.0,94,0.00,,,0.00,weatherlink.com 1.10,2013-10-03 10:02:00,
2013-10-03 06:17:00,49.3,48.0,29.92,South,187,0.0,0.0,95,0.00,,,0.00,weatherlink.com 1.10,2013-10-03 10:17:00,
2013-10-03 06:32:00,49.0,47.0,29.92,South,187,0.0,0.0,94,0.00,,,0.00,weatherlink.com 1.10,2013-10-03 10:32:00,
2013-10-03 06:47:00,48.7,47.0,29.93,South,187,0.0,0.0,95,0.00,,,0.00,weatherlink.com 1.10,2013-10-03 10:47:00,
2013-10-03 07:02:00,48.4,47.0,29.93,South,187,0.0,0.0,95,0.00,,,0.00,weatherlink.com 1.10,2013-10-03 11:02:00,
2013-10-03 07:17:00,48.3,47.0,29.94,South,187,0.0,0.0,95,0.00,,,0.00,weatherlink.com 1.10,2013-10-03 11:17:00,
2013-10-03 07:32:00,48.4,47.0,29.95,South,187,0.0,1.0,96,0.00,,,0.00,weatherlink.com 1.10,2013-10-03 11:32:00,
2013-10-03 07:47:00,48.8,48.0,29.95,South,187,0.0,3.0,96,0.00,,,0.00,weatherlink.com 1.10,2013-10-03 11:47:00,
2013-10-03 08:02:00,49.5,49.0,29.96,South,176,0.0,0.0,97,0.00,,,0.00,weatherlink.com 1.10,2013-10-03 12:02:00,
2013-10-03 08:17:00,50.1,49.0,29.96,South,176,0.0,0.0,97,0.00,,,0.00,weatherlink.com 1.10,2013-10-03 12:17:00,
2013-10-03 08:32:00,50.7,50.0,29.97,South,176,0.0,1.0,97,0.00,,,0.00,weatherlink.com 1.10,2013-10-03 12:32:00,
2013-10-03 08:48:00,52.3,52.0,29.97,South,176,1.0,1.0,98,0.00,,,0.00,weatherlink.com 1.10,2013-10-03 12:48:00,
2013-10-03 09:02:00,53.7,53.0,29.97,South,176,0.0,2.0,98,0.00,,,0.00,weatherlink.com 1.10,2013-10-03 13:02:00,
2013-10-03 09:17:00,54.8,54.0,29.97,ENE,72,1.0,2.0,98,0.00,,,0.00,weatherlink.com 1.10,2013-10-03 13:17:00,
2013-10-03 09:32:00,56.4,55.0,29.97,NW,311,0.0,3.0,95,0.00,,,0.00,weatherlink.com 1.10,2013-10-03 13:32:00,
2013-10-03 09:47:00,58.6,55.0,29.97,North,5,1.0,4.0,88,0.00,,,0.00,weatherlink.com 1.10,2013-10-03 13:47:00,
2013-10-03 10:02:00,61.2,55.0,29.97,SSW,192,0.0,4.0,80,0.00,,,0.00,weatherlink.com 1.10,2013-10-03 14:02:00,
2013-10-03 10:18:00,64.4,56.0,29.97,NE,49,3.0,3.0,74,0.00,,,0.00,weatherlink.com 1.10,2013-10-03 14:18:00,
2013-10-03 10:33:00,70.1,57.0,29.96,NNW,342,4.0,7.0,64,0.00,,,0.00,weatherlink.com 1.10,2013-10-03 14:33:00,
2013-10-03 10:48:00,73.4,57.0,29.96,NNE,14,3.0,5.0,56,0.00,,,0.00,weatherlink.com 1.10,2013-10-03 14:48:00,
2013-10-03 11:03:00,74.2,55.0,29.96,NNE,24,1.0,5.0,52,0.00,,,0.00,weatherlink.com 1.10,2013-10-03 15:03:00,
2013-10-03 11:18:00,74.7,56.0,29.96,NNE,22,0.0,3.0,52,0.00,,,0.00,weatherlink.com 1.10,2013-10-03 15:18:00,
2013-10-03 11:33:00,75.1,55.0,29.95,ESE,123,0.0,2.0,49,0.00,,,0.00,weatherlink.com 1.10,2013-10-03 15:33:00,
2013-10-03 11:48:00,75.8,53.0,29.95,ESE,121,1.0,3.0,46,0.00,,,0.00,weatherlink.com 1.10,2013-10-03 15:48:00,
2013-10-03 12:03:00,76.1,52.0,29.95,SW,219,3.0,4.0,43,0.00,,,0.00,weatherlink.com 1.10,2013-10-03 16:03:00,
2013-10-03 12:18:00,77.0,54.0,29.95,East,88,0.0,3.0,45,0.00,,,0.00,weatherlink.com 1.10,2013-10-03 16:18:00,
2013-10-03 12:33:00,80.0,55.0,29.94,SE,140,2.0,5.0,43,0.00,,,0.00,weatherlink.com 1.10,2013-10-03 16:33:00,
2013-10-03 12:48:00,82.4,51.0,29.94,North,355,1.0,4.0,34,0.00,,,0.00,weatherlink.com 1.10,2013-10-03 16:48:00,
2013-10-03 13:03:00,83.5,48.0,29.93,SSE,159,1.0,5.0,29,0.00,,,0.00,weatherlink.com 1.10,2013-10-03 17:03:00,
2013-10-03 13:18:00,84.5,50.0,29.92,NNE,15,4.0,6.0,30,0.00,,,0.00,weatherlink.com 1.10,2013-10-03 17:18:00,
2013-10-03 13:33:00,84.7,51.0,29.91,West,262,0.0,8.0,31,0.00,,,0.00,weatherlink.com 1.10,2013-10-03 17:33:00,
2013-10-03 13:48:00,85.2,50.0,29.91,South,178,2.0,6.0,30,0.00,,,0.00,weatherlink.com 1.10,2013-10-03 17:48:00,
2013-10-03 14:03:00,85.6,50.0,29.90,South,182,0.0,6.0,29,0.00,,,0.00,weatherlink.com 1.10,2013-10-03 18:03:00,
2013-10-03 14:18:00,85.6,50.0,29.90,SW,227,1.0,8.0,29,0.00,,,0.00,weatherlink.com 1.10,2013-10-03 18:18:00,
2013-10-03 14:33:00,86.3,50.0,29.89,SSE,158,2.0,7.0,28,0.00,,,0.00,weatherlink.com 1.10,2013-10-03 18:33:00,
2013-10-03 14:48:00,84.7,50.0,29.89,North,11,1.0,7.0,30,0.00,,,0.00,weatherlink.com 1.10,2013-10-03 18:48:00,
2013-10-03 15:03:00,85.3,49.0,29.89,SSE,166,2.0,9.0,28,0.00,,,0.00,weatherlink.com 1.10,2013-10-03 19:03:00,
2013-10-03 15:18:00,85.2,49.0,29.89,SSW,194,3.0,4.0,28,0.00,,,0.00,weatherlink.com 1.10,2013-10-03 19:18:00,
2013-10-03 15:33:00,84.6,48.0,29.89,ESE,117,4.0,6.0,28,0.00,,,0.00,weatherlink.com 1.10,2013-10-03 19:33:00,
2013-10-03 15:48:00,84.1,49.0,29.88,SW,221,2.0,4.0,29,0.00,,,0.00,weatherlink.com 1.10,2013-10-03 19:48:00,
2013-10-03 16:03:00,82.7,49.0,29.88,South,190,0.0,4.0,31,0.00,,,0.00,weatherlink.com 1.10,2013-10-03 20:03:00,
2013-10-03 16:18:00,82.5,48.0,29.88,SW,214,1.0,2.0,30,0.00,,,0.00,weatherlink.com 1.10,2013-10-03 20:18:00,
2013-10-03 16:33:00,81.6,50.0,29.88,SSW,198,3.0,5.0,33,0.00,,,0.00,weatherlink.com 1.10,2013-10-03 20:33:00,
2013-10-03 16:48:00,80.7,47.0,29.88,SE,136,2.0,6.0,31,0.00,,,0.00,weatherlink.com 1.10,2013-10-03 20:48:00,
2013-10-03 17:03:00,78.4,53.0,29.88,SSW,212,0.0,2.0,41,0.00,,,0.00,weatherlink.com 1.10,2013-10-03 21:03:00,
2013-10-03 17:18:00,76.4,55.0,29.88,SSW,212,0.0,1.0,47,0.00,,,0.00,weatherlink.com 1.10,2013-10-03 21:18:00,
2013-10-03 17:33:00,74.2,55.0,29.88,SSW,212,0.0,0.0,52,0.00,,,0.00,weatherlink.com 1.10,2013-10-03 21:33:00,
2013-10-03 17:48:00,71.9,56.0,29.89,NNW,331,0.0,2.0,57,0.00,,,0.00,weatherlink.com 1.10,2013-10-03 21:48:00,
2013-10-03 18:03:00,70.0,55.0,29.89,NNW,331,0.0,0.0,60,0.00,,,0.00,weatherlink.com 1.10,2013-10-03 22:03:00,
2013-10-03 18:19:00,68.3,55.0,29.89,NNW,331,0.0,0.0,63,0.00,,,0.00,weatherlink.com 1.10,2013-10-03 22:19:00,
2013-10-03 18:33:00,66.6,55.0,29.90,NNW,331,0.0,0.0,66,0.00,,,0.00,weatherlink.com 1.10,2013-10-03 22:33:00,
2013-10-03 18:48:00,64.9,54.0,29.90,NNW,331,0.0,0.0,69,0.00,,,0.00,weatherlink.com 1.10,2013-10-03 22:48:00,
2013-10-03 19:03:00,63.6,54.0,29.91,NNW,331,0.0,0.0,71,0.00,,,0.00,weatherlink.com 1.10,2013-10-03 23:03:00,
2013-10-03 19:18:00,62.5,54.0,29.91,NNW,331,0.0,0.0,74,0.00,,,0.00,weatherlink.com 1.10,2013-10-03 23:18:00,
2013-10-03 19:33:00,61.2,55.0,29.91,NNW,331,0.0,0.0,80,0.00,,,0.00,weatherlink.com 1.10,2013-10-03 23:33:00,
2013-10-03 19:49:00,60.4,54.0,29.92,NNW,331,0.0,0.0,80,0.00,,,0.00,weatherlink.com 1.10,2013-10-03 23:49:00,
2013-10-03 20:04:00,59.7,54.0,29.92,NNW,331,0.0,0.0,81,0.00,,,0.00,weatherlink.com 1.10,2013-10-04 00:04:00,
2013-10-03 20:19:00,59.3,54.0,29.93,NNW,331,0.0,0.0,82,0.00,,,0.00,weatherlink.com 1.10,2013-10-04 00:19:00,
2013-10-03 20:34:00,59.0,54.0,29.93,NNW,331,0.0,0.0,84,0.00,,,0.00,weatherlink.com 1.10,2013-10-04 00:34:00,
2013-10-03 20:49:00,58.6,54.0,29.93,NNW,331,0.0,0.0,85,0.00,,,0.00,weatherlink.com 1.10,2013-10-04 00:49:00,
2013-10-03 21:04:00,58.2,54.0,29.93,NNW,331,0.0,0.0,86,0.00,,,0.00,weatherlink.com 1.10,2013-10-04 01:04:00,
2013-10-03 21:19:00,57.9,54.0,29.93,NNW,331,0.0,0.0,87,0.00,,,0.00,weatherlink.com 1.10,2013-10-04 01:19:00,
2013-10-03 21:34:00,57.5,54.0,29.93,NNW,331,0.0,0.0,88,0.00,,,0.00,weatherlink.com 1.10,2013-10-04 01:34:00,
2013-10-03 21:49:00,57.1,54.0,29.93,NNW,331,0.0,0.0,88,0.00,,,0.00,weatherlink.com 1.10,2013-10-04 01:49:00,
2013-10-03 22:04:00,56.8,53.0,29.94,NNW,331,0.0,0.0,88,0.00,,,0.00,weatherlink.com 1.10,2013-10-04 02:04:00,
2013-10-03 22:19:00,56.4,53.0,29.95,NNW,331,0.0,0.0,88,0.00,,,0.00,weatherlink.com 1.10,2013-10-04 02:19:00,
2013-10-03 22:34:00,56.1,53.0,29.95,NNW,331,0.0,0.0,90,0.00,,,0.00,weatherlink.com 1.10,2013-10-04 02:34:00,
2013-10-03 22:49:00,56.0,54.0,29.95,NNW,331,0.0,0.0,91,0.00,,,0.00,weatherlink.com 1.10,2013-10-04 02:49:00,
2013-10-03 23:04:00,56.1,54.0,29.95,NNW,331,1.0,1.0,91,0.00,,,0.00,weatherlink.com 1.10,2013-10-04 03:04:00,
2013-10-03 23:19:00,55.9,53.0,29.94,NNW,331,0.0,0.0,91,0.00,,,0.00,weatherlink.com 1.10,2013-10-04 03:19:00,
2013-10-03 23:34:00,55.8,53.0,29.94,NNW,331,0.0,0.0,91,0.00,,,0.00,weatherlink.com 1.10,2013-10-04 03:34:00,
2013-10-03 23:49:00,55.6,53.0,29.94,NNW,331,0.0,0.0,92,0.00,,,0.00,weatherlink.com 1.10,2013-10-04 03:49:00,